• In Moldova, Republic
  • List of Countries
  • For 7 days
  • Water Temperature
  • Satellite Maps
  • Weather Map
  • Weather Widgets
  • user-avatar
    Login

    Hourly Weather Satif

    Today, 23 January, Tuesday

    Time Temperature Precipitation Wind Pressure Humidity
    00:00 +7°C° 0 mm 2 mps 676 mmHg 74%
    01:00 +8°C° 0 mm 1 mps 675 mmHg 74%
    02:00 +8°C° 0 mm 1 mps 675 mmHg 75%
    03:00 +7°C° 0 mm 1 mps 675 mmHg 75%
    04:00 +7°C° 0 mm 1 mps 675 mmHg 75%
    05:00 +7°C° 0 mm 1 mps 675 mmHg 75%
    06:00 +6°C° 0 mm 1 mps 675 mmHg 74%
    07:00 +7°C° 0 mm 2 mps 676 mmHg 68%
    08:00 +9°C° 0 mm 2 mps 676 mmHg 62%
    09:00 +10°C° 0 mm 2 mps 677 mmHg 55%
    10:00 +12°C° 0 mm 2 mps 678 mmHg 53%
    11:00 +12°C° 0 mm 3 mps 678 mmHg 50%
    12:00 +13°C° 0 mm 3 mps 678 mmHg 48%
    13:00 +13°C° 0 mm 4 mps 678 mmHg 50%
    14:00 +13°C° 0 mm 4 mps 678 mmHg 53%
    15:00 +13°C° 0 mm 4 mps 678 mmHg 55%
    16:00 +12°C° 0 mm 3 mps 678 mmHg 64%
    17:00 +10°C° 0 mm 3 mps 678 mmHg 74%
    18:00 +8°C° 0 mm 2 mps 677 mmHg 84%
    19:00 +8°C° 0 mm 2 mps 678 mmHg 86%
    20:00 +7°C° 0 mm 2 mps 678 mmHg 88%
    21:00 +7°C° 0 mm 1 mps 678 mmHg 91%
    22:00 +7°C° 0 mm 1 mps 678 mmHg 88%
    23:00 +6°C° 0 mm 1 mps 678 mmHg 85%

    Tomorrow, 24 January, Wednesday

    Time Temperature Precipitation Wind Pressure Humidity
    00:00 +6°C° 0 mm 1 mps 678 mmHg 82%
    01:00 +5°C° 0 mm 1 mps 677 mmHg 78%
    02:00 +5°C° 0 mm 1 mps 677 mmHg 75%
    03:00 +5°C° 0 mm 1 mps 677 mmHg 71%
    04:00 +4°C° 0 mm 1 mps 677 mmHg 70%
    05:00 +4°C° 0 mm 1 mps 677 mmHg 68%
    06:00 +4°C° 0 mm 1 mps 677 mmHg 67%
    07:00 +6°C° 0 mm 1 mps 678 mmHg 60%
    08:00 +8°C° 0 mm 1 mps 678 mmHg 53%
    09:00 +9°C° 0 mm 1 mps 679 mmHg 46%
    10:00 +11°C° 0 mm 1 mps 679 mmHg 40%
    11:00 +12°C° 0 mm 1 mps 679 mmHg 35%
    12:00 +14°C° 0 mm 1 mps 679 mmHg 30%
    13:00 +14°C° 0 mm 1 mps 679 mmHg 29%
    14:00 +14°C° 0 mm 1 mps 679 mmHg 28%
    15:00 +15°C° 0 mm 1 mps 679 mmHg 27%
    16:00 +13°C° 0 mm 1 mps 678 mmHg 33%
    17:00 +11°C° 0 mm 1 mps 678 mmHg 39%
    18:00 +9°C° 0 mm 1 mps 678 mmHg 45%
    19:00 +8°C° 0 mm 2 mps 678 mmHg 45%
    20:00 +8°C° 0 mm 2 mps 678 mmHg 45%
    21:00 +7°C° 0 mm 2 mps 678 mmHg 45%
    22:00 +7°C° 0 mm 2 mps 678 mmHg 47%
    23:00 +7°C° 0 mm 2 mps 677 mmHg 49%

    Day after tomorrow, 25 January, Thursday

    Time Temperature Precipitation Wind Pressure Humidity
    00:00 +5°C° 0 mm 3 mps 677 mmHg 52%
    01:00 +5°C° 0 mm 3 mps 677 mmHg 56%
    02:00 +4°C° 0 mm 3 mps 677 mmHg 61%
    03:00 +4°C° 0 mm 3 mps 676 mmHg 66%
    04:00 +4°C° 0 mm 3 mps 676 mmHg 69%
    05:00 +4°C° 0 mm 3 mps 676 mmHg 73%
    06:00 +3°C° 0 mm 3 mps 676 mmHg 76%
    07:00 +5°C° 0 mm 3 mps 676 mmHg 72%
    08:00 +7°C° 0 mm 3 mps 677 mmHg 68%
    09:00 +7°C° 0 mm 4 mps 677 mmHg 64%
    10:00 +10°C° 0 mm 4 mps 677 mmHg 59%
    11:00 +11°C° 0 mm 4 mps 677 mmHg 53%
    12:00 +12°C° 0 mm 4 mps 677 mmHg 48%
    13:00 +12°C° 0 mm 4 mps 677 mmHg 48%
    14:00 +12°C° 0 mm 4 mps 676 mmHg 48%
    15:00 +12°C° 0 mm 4 mps 676 mmHg 48%
    16:00 +11°C° 0 mm 4 mps 675 mmHg 54%
    17:00 +9°C° 0 mm 3 mps 675 mmHg 60%
    18:00 +8°C° 0 mm 3 mps 674 mmHg 67%
    19:00 +7°C° 0 mm 3 mps 674 mmHg 70%
    20:00 +7°C° 0 mm 3 mps 674 mmHg 73%
    21:00 +5°C° 0 mm 3 mps 674 mmHg 76%
    22:00 +5°C° 0 mm 3 mps 674 mmHg 77%
    23:00 +5°C° 0 mm 3 mps 674 mmHg 78%

    26 January, Friday

    Time Temperature Precipitation Wind Pressure Humidity
    00:00 +5°C° 0 mm 3 mps 673 mmHg 79%
    01:00 +4°C° 0 mm 3 mps 673 mmHg 80%
    02:00 +4°C° 0 mm 3 mps 673 mmHg 81%
    03:00 +4°C° 0 mm 3 mps 672 mmHg 83%
    04:00 +4°C° 0 mm 3 mps 672 mmHg 84%
    05:00 +3°C° 0 mm 3 mps 672 mmHg 85%
    06:00 +3°C° 0 mm 3 mps 672 mmHg 86%
    07:00 +4°C° 0 mm 3 mps 672 mmHg 81%
    08:00 +7°C° 0 mm 3 mps 673 mmHg 75%
    09:00 +7°C° 0 mm 4 mps 673 mmHg 70%
    10:00 +8°C° 0 mm 4 mps 673 mmHg 66%
    11:00 +10°C° 0 mm 4 mps 673 mmHg 62%
    12:00 +11°C° 0 mm 4 mps 673 mmHg 57%
    13:00 +10°C° 0.4 mm 4 mps 673 mmHg 63%
    14:00 +8°C° 0.4 mm 4 mps 672 mmHg 68%
    15:00 +7°C° 0.4 mm 4 mps 672 mmHg 73%
    16:00 +7°C° 0.4 mm 4 mps 672 mmHg 76%
    17:00 +6°C° 0.4 mm 4 mps 673 mmHg 78%
    18:00 +5°C° 0.4 mm 3 mps 673 mmHg 81%
    19:00 +5°C° 0.5 mm 3 mps 673 mmHg 81%
    20:00 +4°C° 0.5 mm 4 mps 673 mmHg 81%
    21:00 +4°C° 0.5 mm 4 mps 674 mmHg 81%
    22:00 +3°C° 0.8 mm 4 mps 673 mmHg 81%
    23:00 +3°C° 0.8 mm 4 mps 673 mmHg 81%

    27 January, Saturday

    Time Temperature Precipitation Wind Pressure Humidity
    00:00 +1°C° 0.8 mm 4 mps 673 mmHg 82%
    01:00 +2°C° 1.2 mm 3 mps 672 mmHg 84%
    02:00 +2°C° 1.2 mm 3 mps 672 mmHg 87%
    03:00 +3°C° 1.2 mm 2 mps 672 mmHg 89%
    04:00 +1°C° 1.6 mm 3 mps 672 mmHg 90%
    05:00 +1°C° 1.6 mm 3 mps 672 mmHg 92%
    06:00 0°C° 1.6 mm 4 mps 672 mmHg 93%
    07:00 0°C° 0.9 mm 4 mps 672 mmHg 92%
    08:00 0°C° 0.9 mm 5 mps 672 mmHg 91%
    09:00 -1°C° 0.9 mm 6 mps 672 mmHg 90%
    10:00 -1°C° 0.7 mm 6 mps 672 mmHg 89%
    11:00 +1°C° 0.7 mm 6 mps 672 mmHg 88%
    12:00 +1°C° 0.7 mm 6 mps 672 mmHg 87%
    13:00 -1°C° 0.6 mm 6 mps 671 mmHg 88%
    14:00 -1°C° 0.6 mm 6 mps 671 mmHg 88%
    15:00 -1°C° 0.6 mm 6 mps 671 mmHg 88%
    16:00 0°C° 0.3 mm 5 mps 671 mmHg 89%
    17:00 0°C° 0.3 mm 5 mps 671 mmHg 90%
    18:00 -1°C° 0.3 mm 4 mps 671 mmHg 91%
    19:00 -1°C° 0.4 mm 4 mps 671 mmHg 92%
    20:00 -1°C° 0.4 mm 4 mps 671 mmHg 92%
    21:00 0°C° 0.4 mm 3 mps 672 mmHg 93%
    22:00 0°C° 0.5 mm 3 mps 672 mmHg 93%
    23:00 0°C° 0.5 mm 3 mps 671 mmHg 93%

    28 January, Sunday

    Time Temperature Precipitation Wind Pressure Humidity
    00:00 0°C° 0.5 mm 3 mps 671 mmHg 94%
    01:00 0°C° 0.3 mm 3 mps 671 mmHg 94%
    02:00 0°C° 0.3 mm 3 mps 671 mmHg 94%
    03:00 +1°C° 0.3 mm 2 mps 671 mmHg 94%
    04:00 +1°C° 0.3 mm 2 mps 671 mmHg 94%
    05:00 -1°C° 0.3 mm 2 mps 671 mmHg 95%
    06:00 -1°C° 0.3 mm 2 mps 671 mmHg 95%
    07:00 +1°C° 0.3 mm 2 mps 671 mmHg 94%
    08:00 +1°C° 0.3 mm 2 mps 672 mmHg 93%
    09:00 +1°C° 0.3 mm 2 mps 672 mmHg 93%
    10:00 +2°C° 0.6 mm 2 mps 672 mmHg 91%
    11:00 +2°C° 0.6 mm 2 mps 672 mmHg 89%
    12:00 +2°C° 0.6 mm 2 mps 672 mmHg 88%
    13:00 +4°C° 0.6 mm 1 mps 672 mmHg 86%
    14:00 +4°C° 0.6 mm 1 mps 672 mmHg 85%
    15:00 +4°C° 0.6 mm 1 mps 671 mmHg 83%
    16:00 +3°C° 0.1 mm 1 mps 672 mmHg 84%
    17:00 +3°C° 0.1 mm 1 mps 672 mmHg 86%
    18:00 +2°C° 0.1 mm 1 mps 672 mmHg 87%
    19:00 +1°C° 0 mm 2 mps 672 mmHg 87%
    20:00 +1°C° 0 mm 2 mps 673 mmHg 87%
    21:00 -1°C° 0 mm 2 mps 673 mmHg 88%
    22:00 -1°C° 0 mm 2 mps 673 mmHg 87%
    23:00 -1°C° 0 mm 2 mps 673 mmHg 87%
    Show more